Tallevast, FL

6:13 PM EDT on September 29, 2016 (GMT -0400)
Sarasota-bradenton

Weather History for KSRQ - March, 2012

Change the Weather History Date:

Sunday, March 18, 2012

  Actual Average Record
Temperature  
Mean Temperature 74 °F 67 °F  
Max Temperature 88 °F 76 °F 88 °F (2012)
Min Temperature 59 °F 57 °F 33 °F (1916)
Degree Days  
Heating Degree Days 0 1  
Month to date heating degree days 7 37  
Since 1 July heating degree days 205 455  
Cooling Degree Days 9 3  
Month to date cooling degree days 144 54  
Year to date cooling degree days 323 158  
Growing Degree Days 23 (Base 50)    
Moisture  
Dew Point 59 °F    
Average Humidity 66    
Maximum Humidity 90    
Minimum Humidity 29    
Precipitation  
Precipitation 0.00 in 0.12 in 3.49 in (1960)
Month to date precipitation 0.25 2.30  
Year to date precipitation 1.98 7.49  
Sea Level Pressure  
Sea Level Pressure 30.17 in    
Wind  
Wind Speed 8 mph (East)    
Max Wind Speed 17 mph    
Max Gust Speed 23 mph    
Visibility 10 miles    
Events      
T = Trace of Precipitation, MM = Missing Value Source: NWS Daily Summary

Daily Weather History Graph

Daily Weather History Graph

Search for Another Location

Airport or City:

Trip Planner

Search our weather history database for the weather conditions in past years. The results will help you decide how hot, cold, wet, or windy it might be!

Date:

Astronomy

Mar. 18, 2012 Rise Set
Actual Time 7:35 AM EDT 7:40 PM EDT
Civil Twilight 7:12 AM EDT 8:04 PM EDT
Nautical Twilight 6:45 AM EDT 8:31 PM EDT
Astronomical Twilight 6:18 AM EDT 8:58 PM EDT
Moon 4:55 AM EDT (3/18) 4:22 PM EDT (3/18)
Length of Visible Light 12h 51m
Length of Day
12h 04m
Waning Crescent, 15% of the Moon is Illuminated
Mar 18
Waning Crescent
Mar 22
New
Mar 30
First Quarter
Apr 6
Full
Apr 13
Last Quarter

Hourly Weather History & Observations

Time (EDT) Temp. Heat Index Dew Point Humidity Pressure Visibility Wind Dir Wind Speed Gust Speed Precip Events Conditions
12:53 AM 66.9 °F - 55.9 °F 68% 30.20 in 10.0 mi East 8.1 mph - N/A   Clear
1:53 AM 64.9 °F - 57.0 °F 75% 30.19 in 10.0 mi East 4.6 mph - N/A   Clear
2:53 AM 64.0 °F - 57.0 °F 78% 30.18 in 10.0 mi NE 3.5 mph - N/A   Clear
3:53 AM 62.1 °F - 57.0 °F 84% 30.17 in 10.0 mi East 4.6 mph - N/A   Clear
4:53 AM 59.0 °F - 55.9 °F 90% 30.17 in 10.0 mi East 3.5 mph - N/A   Clear
5:53 AM 60.1 °F - 57.0 °F 90% 30.17 in 10.0 mi Calm Calm - N/A   Clear
6:53 AM 60.1 °F - 57.0 °F 90% 30.19 in 10.0 mi ENE 4.6 mph - N/A   Clear
7:53 AM 61.0 °F - 57.0 °F 87% 30.21 in 10.0 mi East 4.6 mph - N/A   Clear
8:53 AM 64.9 °F - 60.1 °F 84% 30.22 in 10.0 mi ENE 5.8 mph - N/A   Clear
9:53 AM 73.0 °F - 61.0 °F 66% 30.24 in 10.0 mi East 5.8 mph - N/A   Clear
10:53 AM 77.0 °F - 61.0 °F 58% 30.24 in 10.0 mi ESE 8.1 mph - N/A   Clear
11:53 AM 81.0 °F 81.6 °F 60.1 °F 49% 30.23 in 10.0 mi East 11.5 mph - N/A   Partly Cloudy
12:53 PM 82.0 °F 81.7 °F 57.0 °F 42% 30.22 in 10.0 mi ESE 8.1 mph - N/A   Scattered Clouds
1:53 PM 84.9 °F - 48.9 °F 29% 30.19 in 10.0 mi East 15.0 mph 19.6 mph N/A   Partly Cloudy
2:53 PM 87.1 °F 84.9 °F 53.1 °F 31% 30.16 in 10.0 mi ESE 12.7 mph 19.6 mph N/A   Scattered Clouds
3:53 PM 84.9 °F 83.2 °F 53.1 °F 33% 30.12 in 10.0 mi East 9.2 mph - N/A   Scattered Clouds
4:42 PM 78.8 °F - 64.4 °F 61% 30.12 in 10.0 mi West 13.8 mph - N/A   Scattered Clouds
4:53 PM 79.0 °F - 64.9 °F 62% 30.12 in 10.0 mi West 12.7 mph 20.7 mph N/A   Mostly Cloudy
5:53 PM 75.9 °F - 64.9 °F 69% 30.12 in 10.0 mi WNW 11.5 mph - N/A   Mostly Cloudy
6:53 PM 75.0 °F - 64.9 °F 71% 30.12 in 10.0 mi NW 10.4 mph - N/A   Scattered Clouds
7:53 PM 73.9 °F - 64.0 °F 71% 30.13 in 10.0 mi NW 8.1 mph - N/A   Overcast
8:53 PM 73.0 °F - 64.9 °F 76% 30.14 in 10.0 mi Calm Calm - N/A   Mostly Cloudy
9:53 PM 73.9 °F - 60.1 °F 62% 30.15 in 10.0 mi ESE 8.1 mph - N/A   Scattered Clouds
11:53 PM 71.1 °F - 60.1 °F 68% 30.16 in 10.0 mi East 10.4 mph - N/A   Clear